Regional Weather Roundup
Issued by NWS

Home | Current Version | Previous Version | Graphics & Text | Print | Product List | Glossary On
Versions: 1 2 3 4 5 6 7 8 9 10 11 12 13 14 15 16 17 18 19 20 21 22 23 24 25 26 27 28 29 30 31 32 33 34 35 36 37 38 39 40 41 42 43 44 45 46 47 48 49
000
ASUS45 KCYS 300110
RWRWY

WYOMING REGIONAL WEATHER ROUNDUP
NATIONAL WEATHER SERVICE CHEYENNE WY
700 PM MDT SAT AUG 29 2015

NOTE:  "FAIR" INDICATES FEW OR NO CLOUDS BELOW 12,000 FEET
WITH NO SIGNIFICANT WEATHER AND/OR OBSTRUCTIONS TO VISIBILITY.

WYZ001-300200-
YELLOWSTONE NATIONAL PARK

CITY           SKY/WX    TMP DP  RH WIND       PRES   REMARKS
LK YELLOWSTONE   N/A     71  42  35 VRB6      30.20F
W YELLOWSTONE  NOT AVBL

$$
WYZ002>013-054>058-071-098>099-300200-
NORTHERN WYOMING

CITY           SKY/WX    TMP DP  RH WIND       PRES   REMARKS
JACKSON        SUNNY     79  43  27 S7        30.09F
CODY           FAIR      81  45  28 NE8       29.96F
GREYBULL       FAIR      93  30  10 SE9       29.83F
WORLAND        FAIR      90  38  16 S9        29.87F
SHERIDAN       FAIR      91  40  16 CALM      29.86F
BUFFALO        FAIR      85  37  18 SW7       29.97S
GILLETTE       FAIR      83  45  26 S9        29.92F
HULETT         FAIR      86  41  20 SE13      29.95F
NEWCASTLE      FAIR      86  34  15 MISG      29.98F

$$
WYZ014>020-022>026-101>103-300200-
CENTRAL WYOMING

CITY           SKY/WX    TMP DP  RH WIND       PRES   REMARKS
BIG PINEY      FAIR      78  41  26 W8        30.17F
PINEDALE       FAIR      79  36  21 MISG      30.18F
DUBOIS         FAIR      75  34  22 W10       30.16F
LANDER         FAIR      85  36  17 SW13      30.00F
RIVERTON       FAIR      87  33  14 SW8       30.00F
CASPER         FAIR      84  33  16 S10       30.03F
DOUGLAS        FAIR      86  29  12 SE10      30.03F

$$
WYZ021-027>030-104>119-300200-
SOUTHERN WYOMING

CITY           SKY/WX    TMP DP  RH WIND       PRES   REMARKS
EVANSTON       FAIR      81  32  17 SW18      30.17F
KEMMERER       FAIR      79  28  15 SW14G23   30.19F
FORT BRIDGER   PTCLDY    81  34  18 W10       30.20F
ROCK SPRINGS   FAIR      81  31  16 S17G25    30.14F
DIXON          FAIR      83  26  12 W3        30.20F
RAWLINS        FAIR      81  25  12 S9        30.19F
SARATOGA       FAIR      77  34  20 W3        30.23S
LARAMIE        FAIR      75  41  29 SE13      30.24S
CHEYENNE       FAIR      79  39  23 S9        30.18S
TORRINGTON     FAIR      83  44  25 SE10      30.00S
PINE BLUFFS    FAIR      81  34  18 SE6       30.12S

$$



USA.gov is the U.S. government's official web portal to all federal, state and local government web resources and services.